Wetbulb
69.43 69.69 69.42 70.71 69.92 72.87 73.42 74.89 76.35 76.49 75.85 75.01 74.39 72.53 74.14 75.40 75.83 78.19 76.65 75.53 74.14 78.98 79.40 77.43 78.41 76.01 73.47 70.87 78.14 76.89 73.96 74.66 72.85 74.60 72.51 72.89 72.36 72.11 73.29 73.38 73.10 73.96 74.49
67.34 69.24 69.90 71.27 71.47 72.06 73.17 74.85 76.24 76.75 76.61 75.31 76.72 73.29 76.75 76.71 74.51 75.84 77.72 76.21 76.67 79.07 78.83 76.12 77.31 75.59 75.90 77.35 77.55 76.10 73.23 74.75 72.53 72.07 71.80 66.35 70.04 71.14 71.19 73.09 73.01 73.59 73.25
66.90 68.52 68.76 70.70 71.29 70.86 72.88 74.15 76.08 76.42 76.58 77.92 77.48 75.21 71.68 72.64 70.82 72.15 76.15 77.36 77.69 78.28 78.20 77.87 79.10 72.82 77.77 76.58 77.14 75.60 71.56 74.36 72.79 74.06 73.00 67.26 65.82 70.20 71.04 71.79 72.07 72.35 73.59
67.41 67.69 70.03 70.64 71.40 70.24 73.48 74.53 75.85 76.27 75.86 78.00 76.83 78.00 75.40 72.55 75.48 75.66 76.35 77.05 78.02 77.45 76.44 78.98 79.10 77.03 73.45 71.61 77.27 76.48 74.62 74.51 73.00 73.07 73.22 73.35 73.36 70.43 67.13 71.14 70.94 73.48 71.62
68.48 68.28 69.07 71.02 72.08 71.40 72.47 74.07 75.05 76.64 76.01 77.08 78.45 76.82 77.14 75.07 74.04 74.69 73.81 76.75 78.49 77.58 76.43 78.03 79.40 76.68 73.44 72.27 76.37 77.78 77.19 76.87 73.21 69.22 74.20 73.70 74.11 73.59 72.66 66.56 68.54 71.72 72.07
68.92 69.84 69.98 71.53 71.21 71.43 71.26 73.54 74.55 76.30 77.41 76.39 77.41 77.77 76.34 71.37 69.81 74.39 72.33 75.95 76.30 77.50 77.13 77.12 79.16 77.74 72.81 75.51 73.56 78.15 77.86 77.82 77.77 75.81 75.17 74.23 71.95 71.40 70.87 69.54 69.49 69.96 72.11
69.05 69.22 68.85 70.68 70.86 69.22 70.95 73.79 75.02 75.56 76.16 75.93 76.46 77.04 76.77 77.39 73.22 73.60 71.91 75.60 73.40 75.59 76.95 79.27 79.37 77.04 78.45 76.33 78.34 79.25 78.31 77.19 76.59 78.09 75.02 75.56 73.12 74.95 72.36 73.43 71.21 70.24 71.47
69.62 68.96 70.35 71.42 70.09 70.18 70.83 73.81 74.94 75.35 76.25 76.20 77.03 77.28 78.21 76.40 75.22 72.75 75.48 73.84 71.25 74.40 78.44 78.20 78.24 78.87 78.05 78.43 78.58 77.84 77.18 77.61 76.57 76.43 76.79 76.27 74.34 75.71 72.30 74.28 72.14 70.47 71.81
65.14 67.14 70.96 71.85 69.97 71.41 70.59 73.79 75.16 76.10 76.54 76.50 77.34 77.31 77.39 76.89 77.47 77.55 78.85 74.96 73.03 75.89 76.27 77.32 77.57 78.14 76.40 78.53 78.08 75.50 76.42 77.39 75.64 77.72 76.67 76.08 73.95 75.28 74.47 75.06 74.78 72.12 69.52
62.90 64.00 66.10 68.44 69.47 72.15 71.81 74.30 75.88 75.91 76.58 76.59 77.08 77.31 77.41 77.98 78.04 78.89 78.33 79.58 72.89 72.41 72.24 72.17 75.30 77.60 76.28 77.10 77.87 77.36 74.26 75.51 74.67 75.33 76.55 77.26 72.65 76.04 75.50 74.65 75.33 74.72 73.12
58.08 61.53 61.63 63.85 67.01 69.25 70.53 69.36 75.17 76.06 76.45 76.81 76.85 76.83 77.02 77.69 78.09 77.84 79.32 78.82 79.44 72.81 70.82 67.27 68.37 74.40 77.49 78.42 78.02 76.47 75.11 75.83 76.17 77.98 76.72 76.35 77.36 74.68 76.38 75.13 75.40 74.61 75.01
55.22 57.80 58.28 58.69 60.15 63.86 66.31 65.95 70.22 70.02 76.06 76.69 77.25 76.98 77.57 77.55 77.55 77.39 78.00 79.41 78.64 78.88 74.26 70.13 70.25 74.86 76.70 76.85 77.43 75.94 76.39 75.27 75.76 76.52 75.97 76.37 76.03 77.01 77.42 76.18 75.76 76.31 76.26
52.68 55.15 57.71 56.97 57.42 57.52 61.01 64.90 66.06 66.62 69.10 72.59 76.54 76.69 76.75 77.20 77.09 77.62 77.75 78.43 78.58 78.58 77.73 77.92 78.44 78.37 77.19 77.75 76.68 77.27 77.03 76.02 75.86 77.43 77.05 76.40 77.10 76.47 75.77 77.31 76.54 75.28 75.92
53.72 53.88 55.52 56.28 57.83 56.35 57.88 60.00 64.59 64.65 66.64 68.65 70.79 73.87 76.42 76.57 76.83 77.74 77.76 77.76 78.65 78.04 77.74 78.05 78.10 77.64 77.79 77.70 77.17 76.89 77.16 76.83 76.77 77.13 77.69 77.39 76.74 76.59 76.63 76.15 76.38 75.71 75.82
53.33 54.57 54.58 55.84 56.74 57.18 57.79 57.02 58.48 62.46 64.99 66.14 68.73 69.15 69.71 76.53 79.03 78.79 77.99 78.34 77.66 77.81 77.99 77.82 77.38 77.49 76.88 76.31 76.86 77.38 76.80 75.83 75.28 76.32 76.98 77.45 77.50 74.33 75.17 75.75 76.33 75.96 75.42
53.81 54.13 55.45 56.12 56.12 56.54 58.15 59.18 58.49 58.27 62.16 62.96 64.83 66.37 70.54 72.71 74.54 76.93 77.41 78.52 77.68 77.95 77.63 77.32 77.04 76.41 76.50 70.25 68.60 74.73 76.58 76.92 76.63 75.52 76.96 77.85 75.22 73.10 69.14 68.86 69.11 73.12 76.14
54.95 55.24 55.25 55.90 57.62 57.46 58.74 58.74 60.49 61.00 59.76 60.10 60.96 62.83 66.20 68.18 70.70 74.49 76.61 77.45 77.21 77.85 77.30 77.06 77.07 76.74 76.85 68.40 65.21 67.39 75.64 76.67 76.96 76.72 76.36 76.69 75.67 73.94 75.83 69.03 67.72 68.06 66.82
55.00 55.52 55.89 56.61 57.83 58.69 58.71 60.42 60.44 61.64 60.97 61.57 60.86 60.78 61.57 63.85 68.36 70.75 69.55 72.20 76.69 76.99 76.72 76.51 77.21 77.35 77.22 67.88 65.77 65.51 73.57 75.60 75.69 76.43 76.89 76.48 76.18 76.67 77.04 77.05 75.69 74.25 74.59
55.48 55.81 56.15 56.66 59.10 59.36 60.50 61.26 60.47 61.70 61.64 61.37 62.13 61.69 60.32 60.17 63.05 67.75 68.61 69.62 71.84 74.81 75.60 75.86 76.31 76.70 77.18 65.74 63.54 65.84 73.15 73.42 74.57 75.69 76.00 75.68 77.18 71.51 67.64 74.84 75.57 76.36 76.62
55.40 54.99 56.14 56.88 57.37 58.30 58.54 58.70 60.05 61.09 60.40 60.52 61.79 62.98 63.29 62.30 61.31 62.27 66.77 68.75 70.37 71.16 74.13 74.78 75.73 72.20 76.27 67.87 63.31 64.02 73.94 73.39 73.12 73.77 74.62 68.04 71.64 66.20 62.87 73.36 74.78 73.66 74.19
54.33 54.75 55.02 54.85 55.52 56.31 56.36 56.69 58.10 58.10 59.80 60.47 60.87 61.66 62.08 62.29 63.67 64.37 63.69 67.07 67.55 69.12 71.03 71.50 74.68 75.26 74.66 75.25 61.92 60.58 74.73 74.55 73.78 73.66 73.64 74.06 64.13 61.11 60.16 60.69 74.81 74.09 74.34
53.20 53.72 53.54 53.66 54.89 55.43 55.08 55.07 56.52 58.41 58.98 59.49 59.67 60.53 61.13 60.85 60.70 62.35 63.68 63.40 65.26 66.14 68.32 69.78 71.60 74.15 75.46 68.02 66.08 59.25 60.01 69.98 74.63 74.14 74.46 74.39 61.27 58.54 59.71 61.33 63.52 62.57 64.81
52.72 53.17 52.90 53.15 54.04 54.71 54.51 53.31 55.67 56.84 57.14 57.29 57.30 57.77 58.84 59.42 60.33 60.86 62.59 62.34 62.65 64.81 65.41 66.83 66.87 69.76 73.83 74.81 63.72 60.57 58.70 59.61 68.90 75.19 72.13 64.98 60.10 56.74 56.74 56.87 58.52 58.31 69.00
52.04 52.33 51.64 51.32 52.13 54.12 54.29 53.89 55.42 56.32 55.50 55.08 55.54 56.22 56.18 55.88 57.38 58.61 59.66 60.00 61.04 60.13 61.59 63.76 66.23 69.77 73.38 74.32 75.43 75.44 71.99 62.81 63.93 65.48 70.82 69.00 65.90 63.29 65.36 66.11 63.10 64.66 69.72
51.87 51.61 50.69 50.94 51.24 52.99 53.00 52.95 54.25 54.00 51.68 52.49 53.02 53.42 54.36 55.26 56.39 58.00 59.00 59.79 61.63 61.12 61.63 61.75 62.65 62.36 63.68 70.19 63.82 62.43 67.04 66.79 66.04 63.00 72.31 72.74 72.92 72.29 72.30 72.51 73.12 73.13 71.06
52.19 51.39 51.09 50.43 50.85 51.17 51.44 52.88 53.41 52.34 49.68 48.65 49.52 50.57 51.04 52.51 53.33 54.04 55.04 53.98 51.12 49.53 48.03 47.29 52.56 60.37 55.02 51.94 50.45 49.95 48.58 52.75 52.57 66.01 70.24 71.22 72.64 73.15 73.32 72.67 72.41 73.15 72.21
MSLP
1011.02 1011.47 1012.17 1012.58 1013.46 1014.40 1015.47 1016.03 1016.30 1016.98 1017.58 1017.92 1017.93 1018.26 1018.58 1018.97 1018.97 1018.91 1019.11 1019.45 1019.60 1019.32 1019.46 1019.59 1019.49 1020.38 1020.62 1020.25 1020.59 1020.61 1020.68 1020.75 1020.78 1020.76 1020.35 1020.16 1019.96 1019.82 1019.85 1019.73 1020.07 1020.13 1020.35
1010.99 1011.64 1012.00 1012.64 1013.49 1014.26 1015.20 1016.07 1016.53 1017.16 1017.50 1017.77 1017.70 1017.97 1018.26 1018.91 1019.10 1019.14 1018.96 1019.07 1019.28 1019.27 1019.58 1019.72 1019.56 1020.30 1020.76 1020.30 1020.56 1020.78 1020.85 1020.82 1020.58 1020.78 1020.79 1020.65 1020.36 1020.01 1019.88 1019.79 1019.94 1020.00 1019.93
1010.90 1011.46 1011.90 1012.66 1013.51 1014.37 1014.97 1015.75 1016.43 1017.02 1017.40 1017.38 1017.47 1018.00 1018.82 1019.27 1019.32 1019.58 1019.22 1018.73 1019.08 1019.14 1019.59 1019.66 1019.66 1019.93 1020.22 1020.43 1020.48 1020.70 1021.33 1020.79 1020.57 1020.63 1020.61 1020.78 1020.59 1020.30 1020.16 1020.15 1020.17 1020.13 1020.04
1010.45 1011.11 1011.68 1012.49 1013.27 1014.29 1014.76 1015.50 1016.26 1016.89 1017.24 1017.42 1017.39 1017.64 1018.58 1019.35 1019.11 1018.91 1018.77 1018.74 1018.78 1019.00 1019.24 1019.34 1019.43 1020.08 1020.62 1020.82 1020.50 1020.20 1020.56 1020.74 1020.82 1020.49 1020.30 1020.35 1020.43 1020.55 1020.76 1020.43 1020.23 1020.09 1020.11
1010.11 1010.42 1010.57 1011.61 1012.84 1013.47 1014.16 1015.08 1015.93 1016.62 1016.94 1017.23 1017.44 1017.67 1018.70 1018.76 1019.31 1019.35 1019.26 1019.17 1018.83 1018.84 1019.17 1019.33 1019.40 1020.04 1020.83 1020.68 1020.64 1020.47 1020.64 1020.87 1020.91 1020.71 1020.45 1020.42 1020.38 1020.20 1020.61 1020.61 1020.46 1020.31 1020.06
1009.68 1010.40 1010.84 1011.49 1012.29 1013.25 1013.72 1014.71 1015.67 1016.23 1016.59 1017.02 1017.34 1017.69 1018.54 1019.68 1020.13 1020.21 1019.52 1019.46 1019.10 1018.96 1019.18 1019.38 1019.64 1020.15 1020.68 1020.99 1020.41 1020.22 1020.44 1020.73 1020.81 1020.58 1020.61 1020.74 1020.72 1020.65 1020.63 1020.25 1020.27 1020.20 1019.95
1009.50 1010.15 1010.89 1011.56 1012.22 1012.79 1013.38 1014.34 1015.32 1015.90 1016.27 1016.68 1016.97 1017.25 1017.96 1019.06 1019.77 1019.99 1019.70 1019.27 1019.16 1019.05 1019.14 1019.24 1019.74 1020.34 1020.60 1020.69 1020.24 1020.28 1020.62 1020.68 1020.82 1020.77 1020.80 1020.80 1020.67 1020.70 1020.36 1020.22 1020.05 1020.15 1019.90
1010.27 1010.53 1010.65 1011.48 1012.29 1012.89 1013.21 1013.81 1014.73 1015.50 1015.85 1016.14 1016.43 1016.82 1017.20 1018.23 1018.66 1019.01 1019.14 1019.20 1019.01 1019.31 1019.33 1019.53 1019.64 1019.91 1020.16 1020.20 1020.36 1020.66 1020.61 1020.59 1020.77 1020.79 1020.98 1020.88 1020.82 1020.73 1020.12 1020.31 1020.27 1020.40 1019.93
1012.73 1012.72 1011.06 1011.70 1012.64 1012.51 1013.17 1013.49 1014.17 1014.81 1015.32 1015.61 1015.95 1016.32 1016.62 1017.11 1017.58 1018.08 1018.49 1018.94 1018.95 1019.13 1018.81 1019.17 1019.26 1019.62 1020.06 1020.03 1020.39 1020.72 1020.61 1020.71 1020.86 1020.88 1020.89 1021.05 1020.77 1020.80 1020.09 1020.06 1020.14 1020.42 1020.64
1013.63 1013.66 1013.20 1013.11 1012.76 1012.77 1013.12 1013.23 1013.91 1014.21 1014.70 1015.10 1015.43 1015.77 1016.08 1016.39 1016.78 1017.25 1017.40 1017.72 1018.61 1018.95 1020.29 1020.32 1019.53 1019.20 1019.53 1019.85 1020.23 1020.61 1020.52 1020.83 1020.94 1020.84 1020.67 1020.80 1020.83 1020.75 1020.40 1020.11 1020.15 1020.22 1020.43
1015.76 1014.18 1014.90 1015.34 1015.52 1014.05 1013.89 1015.00 1013.63 1014.02 1014.33 1014.72 1014.98 1015.21 1015.58 1015.89 1016.24 1016.57 1016.72 1017.25 1017.69 1017.71 1019.58 1019.49 1019.06 1019.60 1019.46 1019.46 1020.02 1020.55 1020.68 1020.73 1020.67 1020.71 1020.92 1020.66 1021.14 1021.02 1021.01 1020.72 1020.42 1020.26 1020.28
1016.69 1016.64 1016.38 1017.08 1016.91 1015.82 1016.56 1016.63 1016.15 1015.60 1013.94 1014.25 1014.76 1015.03 1015.21 1015.54 1016.03 1016.47 1016.71 1016.97 1017.41 1017.54 1018.31 1018.52 1019.32 1019.54 1019.18 1019.46 1019.97 1020.41 1020.29 1020.44 1020.48 1020.48 1020.84 1020.89 1020.66 1020.70 1020.85 1020.87 1020.72 1020.41 1020.26
1017.65 1017.99 1018.16 1017.96 1016.82 1017.08 1017.70 1017.10 1017.01 1016.41 1016.88 1015.30 1013.99 1014.55 1014.89 1015.06 1015.38 1015.97 1016.46 1016.80 1017.22 1017.26 1017.34 1017.93 1018.36 1018.70 1018.96 1019.32 1019.79 1020.09 1020.03 1020.09 1020.11 1020.09 1020.40 1020.57 1020.65 1020.76 1020.78 1020.88 1020.83 1020.63 1020.32
1017.96 1018.62 1018.69 1018.78 1018.44 1018.61 1018.90 1017.97 1017.89 1016.11 1017.30 1016.28 1015.61 1014.83 1013.89 1014.27 1014.42 1015.32 1016.04 1016.55 1016.85 1017.20 1017.34 1017.50 1017.85 1018.29 1018.65 1018.99 1019.40 1019.69 1019.78 1019.72 1019.79 1019.80 1019.80 1019.96 1020.14 1020.40 1020.70 1020.81 1020.77 1020.76 1020.66
1017.44 1017.93 1018.45 1018.64 1018.55 1018.56 1019.24 1019.49 1019.16 1018.27 1018.08 1017.92 1017.00 1015.18 1016.62 1014.67 1015.41 1014.66 1015.84 1016.29 1016.64 1016.73 1016.97 1017.35 1017.75 1018.07 1018.42 1018.59 1018.77 1018.91 1019.11 1019.22 1019.41 1019.56 1019.62 1019.59 1019.53 1019.77 1020.00 1020.32 1020.41 1020.49 1020.57
1016.84 1017.55 1017.88 1018.11 1018.26 1018.44 1018.79 1018.88 1018.80 1019.08 1019.10 1018.80 1018.33 1017.09 1018.69 1016.64 1015.90 1015.09 1015.73 1015.98 1016.28 1016.47 1016.78 1016.98 1017.28 1017.64 1017.66 1017.54 1017.63 1017.92 1018.20 1018.44 1018.71 1019.02 1019.08 1019.15 1019.15 1019.29 1019.49 1019.68 1019.84 1020.08 1020.39
1016.32 1016.88 1017.49 1017.77 1017.85 1017.93 1018.20 1018.33 1018.45 1018.49 1018.39 1018.91 1019.61 1018.89 1017.60 1016.73 1016.79 1016.73 1015.99 1015.71 1016.09 1015.99 1016.26 1016.41 1016.67 1016.94 1017.19 1017.20 1017.17 1017.37 1017.54 1017.64 1017.88 1018.17 1018.49 1018.68 1018.64 1018.56 1018.72 1018.85 1019.04 1019.24 1019.56
1016.52 1016.81 1017.16 1017.72 1017.86 1018.03 1018.18 1018.16 1018.00 1018.16 1018.44 1018.46 1019.37 1019.55 1018.93 1018.86 1018.22 1017.43 1017.16 1016.83 1016.14 1015.84 1015.94 1015.97 1016.04 1016.20 1016.40 1016.70 1016.97 1017.10 1017.29 1017.24 1017.20 1017.37 1017.66 1017.97 1018.06 1018.03 1018.38 1018.61 1018.72 1018.76 1018.60
1017.13 1017.42 1017.64 1017.83 1018.04 1018.26 1018.43 1018.58 1018.49 1018.47 1018.49 1018.74 1018.91 1018.64 1019.02 1019.34 1018.88 1018.28 1017.85 1017.44 1016.81 1016.21 1015.99 1015.85 1015.78 1015.79 1015.94 1016.15 1016.36 1016.65 1016.98 1016.96 1016.79 1016.73 1016.88 1017.14 1017.39 1017.45 1017.68 1018.00 1018.09 1017.94 1017.57
1018.04 1018.35 1018.35 1018.28 1018.40 1018.85 1018.85 1018.93 1018.82 1018.86 1018.90 1019.20 1018.99 1018.85 1018.87 1018.80 1018.57 1018.18 1017.70 1017.51 1017.02 1016.53 1016.31 1015.96 1015.70 1015.54 1015.49 1015.59 1015.83 1016.15 1016.38 1016.22 1016.12 1016.14 1016.15 1016.40 1016.63 1016.94 1017.15 1017.33 1017.29 1017.24 1016.87
1018.77 1019.09 1019.18 1019.34 1019.67 1019.75 1019.69 1019.54 1019.43 1019.28 1019.36 1019.32 1019.22 1018.97 1018.92 1018.75 1018.18 1017.82 1017.84 1017.44 1017.09 1016.66 1016.11 1015.88 1015.46 1015.28 1015.22 1015.22 1015.24 1015.35 1015.55 1015.41 1015.38 1015.39 1015.19 1015.22 1015.49 1015.93 1016.19 1016.33 1016.42 1015.99 1016.14
1019.22 1019.49 1019.70 1020.11 1020.35 1020.55 1020.53 1020.39 1020.20 1020.09 1019.99 1019.80 1019.53 1019.34 1019.15 1018.83 1018.34 1018.09 1017.73 1017.51 1016.98 1016.40 1015.81 1015.49 1015.12 1014.77 1014.65 1014.55 1014.73 1014.82 1014.87 1014.70 1014.68 1014.57 1014.43 1014.32 1014.31 1014.35 1014.50 1014.82 1015.05 1015.03 1015.19
1019.67 1019.90 1020.23 1020.42 1020.69 1020.90 1021.08 1021.09 1021.13 1021.05 1020.80 1020.53 1020.20 1019.77 1019.40 1019.02 1018.57 1018.09 1017.58 1017.10 1016.72 1016.08 1015.46 1014.97 1014.58 1014.12 1013.75 1013.78 1013.87 1014.12 1014.12 1013.86 1014.27 1013.84 1013.61 1013.73 1013.88 1014.08 1014.14 1014.08 1014.23 1014.28 1014.70
1020.05 1020.53 1020.94 1021.02 1021.07 1021.16 1021.17 1021.34 1021.27 1021.16 1021.03 1020.77 1020.42 1019.97 1019.51 1019.00 1018.50 1017.90 1017.29 1016.71 1016.17 1015.83 1015.19 1014.49 1013.95 1013.56 1013.70 1013.70 1013.88 1014.10 1014.38 1014.30 1014.47 1014.26 1013.45 1013.17 1013.28 1013.34 1013.28 1013.36 1013.30 1013.57 1013.40
1020.47 1021.10 1021.40 1021.43 1021.53 1021.49 1021.61 1021.58 1021.46 1021.41 1021.22 1020.93 1020.53 1020.03 1019.35 1018.78 1018.17 1017.52 1016.88 1016.30 1015.72 1015.33 1015.02 1014.59 1014.35 1014.14 1014.12 1013.95 1014.28 1014.45 1014.55 1014.42 1014.04 1013.80 1013.05 1012.69 1012.62 1012.49 1012.34 1012.06 1011.84 1011.98 1012.24
1020.38 1021.07 1021.42 1021.75 1021.82 1021.90 1021.93 1021.92 1021.92 1021.97 1021.90 1021.44 1020.82 1020.34 1019.93 1019.18 1018.59 1017.92 1017.02 1016.39 1015.68 1015.21 1014.78 1014.27 1014.09 1013.78 1013.75 1013.73 1013.67 1013.74 1013.79 1013.90 1013.29 1013.14 1012.67 1012.23 1011.66 1011.23 1010.97 1010.84 1010.65 1010.48 1010.49
Wind_Speed
20 7 10 14 14 15 12 8 7 10 7 5 5 3 5 4 3 4 10 9 7 4 2 3 1 6 2 4 3 2 2 2 2 2 1 2 3 3 4 6 5 6 6
10 13 15 16 13 16 14 10 8 10 7 6 5 4 4 4 3 2 5 7 6 4 2 3 3 9 4 4 2 2 3 2 2 2 1 3 3 2 1 4 2 1 5
12 19 12 13 13 6 15 13 10 10 8 7 4 5 4 3 3 1 6 7 8 5 5 6 1 5 1 1 2 2 6 2 1 2 1 3 1 2 2 2 4 2 0
15 14 21 19 17 13 14 14 11 12 9 7 5 5 5 8 5 6 3 6 6 5 6 5 4 6 4 5 3 2 2 2 4 2 2 2 2 0 1 2 3 4 4
18 18 19 16 18 13 15 15 12 12 10 8 5 3 3 0 2 2 5 5 5 6 5 5 3 5 5 5 2 1 2 3 2 2 1 0 1 3 1 3 3 3 4
20 19 15 18 15 14 16 16 14 12 10 10 6 5 4 11 5 5 4 4 5 4 4 5 3 4 4 1 3 2 1 3 4 3 4 3 1 3 3 3 3 4 3
9 19 16 19 18 14 17 17 16 14 12 12 9 8 7 4 9 3 5 6 1 4 8 5 4 4 3 6 2 1 3 1 3 4 3 3 2 1 2 2 2 3 1
20 8 18 15 13 14 13 19 19 15 13 14 11 9 8 5 9 13 7 2 2 2 1 4 6 4 6 4 3 3 3 4 3 4 3 4 3 4 2 3 3 3 1
16 4 22 17 8 18 14 19 20 17 16 14 10 10 8 9 5 7 6 7 6 4 1 4 7 6 6 6 5 4 5 1 3 3 4 3 5 5 2 3 2 2 2
15 15 15 9 16 17 15 18 19 18 16 15 13 11 11 11 7 5 6 3 8 5 8 10 7 7 8 6 5 4 5 6 6 4 6 3 3 5 5 3 3 1 1
14 5 14 12 9 11 10 14 15 17 14 13 13 13 12 12 9 6 4 5 3 9 12 8 5 6 6 6 5 5 4 6 5 4 4 5 3 4 4 5 5 2 2
13 13 12 9 7 15 14 9 13 14 12 13 11 13 12 11 11 9 7 6 6 6 13 10 13 14 7 6 6 7 5 7 6 5 5 5 4 4 3 3 6 4 2
13 11 9 10 13 14 10 14 13 15 16 16 15 13 12 11 11 12 10 8 8 7 7 6 5 5 5 5 7 7 7 6 8 6 6 6 5 4 4 5 4 5 3
14 10 9 11 11 12 11 8 9 14 12 16 13 8 14 14 12 10 10 9 8 9 8 7 8 7 7 7 7 8 6 5 6 7 6 7 7 7 6 6 5 6 4
15 13 11 9 10 10 10 9 9 9 11 11 13 11 15 11 4 4 5 7 9 10 9 9 8 10 9 9 10 9 9 7 7 7 7 7 7 11 9 6 6 6 5
15 13 13 12 9 9 7 6 9 9 7 9 11 11 4 3 7 4 5 6 8 8 9 10 10 10 9 14 13 12 9 11 11 9 7 9 7 10 10 11 11 7 4
11 13 12 11 9 9 8 5 4 3 4 8 7 9 12 12 10 10 6 6 7 7 9 11 11 10 11 12 9 11 9 9 9 9 8 8 10 11 11 13 14 12 11
10 10 10 10 8 9 9 8 7 6 5 5 5 5 8 10 9 9 9 11 5 6 7 9 10 10 10 12 12 9 7 8 10 8 10 11 11 8 6 9 9 11 11
9 8 8 7 6 7 5 6 6 6 6 7 7 7 6 7 8 7 8 8 8 7 8 8 10 10 11 12 14 11 9 10 11 10 11 11 9 12 14 9 9 9 10
8 7 7 7 8 8 9 8 6 6 7 8 9 9 7 7 8 8 9 6 6 6 6 9 10 13 13 12 15 11 8 12 11 11 12 13 14 13 11 12 12 11 12
8 6 6 7 9 9 10 8 8 8 9 9 9 9 10 10 8 6 9 8 7 9 7 9 9 11 12 12 12 16 11 11 11 11 11 11 18 19 19 15 13 15 12
6 6 6 7 7 8 8 9 9 11 11 11 11 10 10 9 10 11 8 9 10 9 9 8 9 9 12 12 12 14 18 14 12 12 11 10 12 20 24 19 22 19 13
4 5 6 6 6 7 8 9 8 9 10 10 10 11 12 11 11 11 11 8 9 8 10 8 8 9 7 9 13 14 17 20 12 13 14 14 7 2 7 16 16 10 11
5 7 7 7 7 8 8 9 9 10 10 10 11 10 10 12 12 10 9 10 8 9 9 9 9 7 3 3 5 2 2 4 8 13 13 11 11 13 12 6 6 8 11
4 5 5 6 7 9 9 10 10 10 12 12 11 11 10 11 11 10 10 10 11 10 10 10 7 7 8 4 6 4 3 4 8 8 10 10 10 11 12 13 12 8 8
2 5 6 6 7 8 9 9 10 10 12 13 12 11 11 10 10 11 12 15 14 16 17 17 11 10 12 14 14 14 12 16 11 4 5 9 10 11 11 11 12 12 13
Wind_Direction
158 196 152 142 153 144 156 178 140 135 135 168 200 179 155 169 175 158 176 126 214 185 218 212 196 66 204 147 202 203 221 241 187 237 278 178 186 217 200 208 149 178 176
165 180 162 157 166 149 156 164 150 152 168 191 230 177 153 165 101 50 284 137 168 174 149 316 202 132 189 104 53 93 329 292 98 15 24 307 255 189 207 72 127 14 164
180 174 180 147 154 143 160 162 167 160 198 213 217 108 12 56 36 357 222 145 172 182 171 208 272 144 319 142 209 106 255 335 82 209 288 27 323 48 114 173 99 208 265
186 206 165 165 172 162 171 159 169 166 203 236 199 214 193 168 191 183 165 148 167 181 165 206 163 109 66 337 202 141 11 321 322 316 152 178 171 18 85 100 156 212 144
189 200 180 171 158 173 166 160 169 171 189 222 256 159 142 284 34 305 92 164 162 167 191 177 173 131 112 268 337 107 68 354 342 312 261 170 198 219 263 165 230 232 167
180 194 185 170 171 188 164 158 170 177 182 209 206 234 157 126 271 263 180 225 176 163 176 182 182 89 121 205 152 248 74 6 333 329 360 9 60 326 317 122 180 157 188
203 182 187 168 187 165 169 159 169 179 180 196 201 218 201 193 123 252 209 245 318 178 173 162 145 161 178 231 185 195 4 298 321 332 357 332 280 276 287 31 225 139 173
190 158 192 178 172 189 180 163 167 179 188 184 196 201 230 184 158 193 216 116 310 355 277 170 171 205 175 243 158 209 202 227 232 290 317 320 313 301 340 320 52 1 187
30 23 213 168 197 186 194 169 169 175 183 193 192 194 207 225 208 200 189 158 177 149 78 206 175 206 188 206 180 230 225 173 249 235 265 265 306 319 297 307 36 108 345
39 48 23 24 168 217 200 173 172 174 182 192 193 197 198 213 222 248 177 121 148 175 89 338 237 202 178 196 186 221 227 166 217 230 256 235 315 341 298 330 322 10 273
34 43 50 15 33 33 30 355 178 172 182 196 192 198 199 201 208 220 199 177 183 139 138 192 287 278 188 186 194 236 268 222 207 266 291 261 187 293 325 350 313 286 310
53 41 46 14 21 46 37 22 10 10 185 192 198 200 194 199 193 198 208 185 183 196 164 180 219 207 194 186 209 223 238 194 211 220 235 268 261 245 277 294 295 319 333
61 65 60 48 43 48 16 27 24 19 344 346 188 199 202 197 201 191 196 194 186 210 217 211 191 204 229 228 201 240 248 220 222 199 202 235 242 267 291 295 316 305 312
92 82 63 58 63 70 49 20 13 41 353 6 353 292 197 194 195 187 188 196 194 195 212 229 189 209 218 215 207 202 233 269 246 236 218 210 211 207 218 251 258 284 286
81 76 72 61 56 59 70 70 18 29 20 2 360 14 358 265 184 155 215 209 198 202 201 211 227 200 215 224 214 204 199 211 244 266 254 237 220 212 207 214 239 231 253
89 79 75 69 73 61 56 58 78 23 11 42 11 359 326 349 326 283 253 228 221 215 207 211 212 226 226 225 202 198 211 205 209 222 235 252 250 231 212 216 235 225 249
70 80 71 58 47 60 52 67 110 104 48 54 40 359 1 360 360 325 277 240 233 231 231 221 215 224 230 252 224 213 223 216 212 219 226 241 249 216 211 221 227 240 215
74 57 56 65 52 49 41 26 35 40 42 25 12 48 22 352 342 344 0 341 282 259 252 251 240 230 230 223 239 221 233 239 233 231 216 226 241 259 227 231 222 233 239
73 52 40 31 42 42 55 54 19 19 28 25 5 15 17 352 341 329 343 330 343 323 274 261 259 244 243 230 225 210 235 240 245 242 239 237 239 231 238 238 244 246 236
60 43 31 18 35 16 3 4 5 353 25 358 354 353 350 341 336 328 323 313 323 316 325 290 268 257 252 237 222 208 229 237 239 239 241 238 239 238 234 229 234 245 246
59 30 38 34 24 8 352 342 344 349 355 346 337 338 336 331 304 321 339 324 305 297 300 303 286 276 264 260 230 218 223 235 241 242 244 233 217 229 234 218 237 240 242
50 33 47 35 24 20 4 353 346 353 344 337 331 329 324 321 323 317 305 303 295 289 281 275 279 271 262 245 249 222 221 233 236 241 249 258 235 220 222 224 232 239 231
62 38 23 5 16 12 7 354 354 338 333 324 317 318 318 311 300 295 298 283 287 273 274 265 265 273 263 252 231 239 230 234 238 239 241 242 187 189 233 238 247 241 240
35 38 5 352 349 350 349 345 337 341 333 322 319 312 308 304 297 286 277 274 265 273 273 276 262 252 267 313 321 293 65 255 263 275 263 252 258 273 274 286 231 224 225
48 44 2 353 342 355 350 337 342 343 331 324 318 312 303 305 308 294 286 276 274 265 274 280 287 297 302 300 229 264 282 285 279 300 258 249 249 247 252 251 242 207 207
37 29 10 356 350 348 342 348 343 349 331 320 317 321 315 308 308 305 301 293 285 287 274 260 253 275 259 275 272 261 227 237 240 227 252 248 248 248 245 238 238 233 232